User: anonymous   Login
Location: Unspecified
(0.0000°N, 0.0000°E)
Time: 03:21:18
(UTC+00:00)
Language:

STPSAT 1 - Orbit

View from above orbital plane
View from above orbital plane
View from above satellite
View from above satellite

Ground track
Ground track

The orbit data is extracted from the following two-line orbital elements,

1 30775U 07006D   18321.86979350 +.00001385 +00000-0 +53746-4 0  9993
2 30775 035.4274 113.7396 0004357 282.0306 077.9929 15.26506867646846
Epoch (UTC): 17 November 2018 20:52:30
Eccentricity: 0.0004357
inclination: 35.4274°
perigee height: 483 km
apogee height: 489 km
right ascension of ascending node: 113.7396°
argument of perigee: 282.0306°
revolutions per day: 15.26506867
mean anomaly at epoch: 77.9929°
orbit number at epoch: 64684

The dashed part of the orbit path shows where the satellite is in the earth's shadow,  

DLR